QPF
0.00 0.00 0.00 0.00 0.00 0.00 0.00 0.00 0.00 0.00 0.00 0.01 0.01 0.01 0.01 0.01 0.01 0.01 0.01 0.00 0.00 0.00 0.00 0.01 0.01 0.01 0.01 0.01 0.01 0.01 0.01 0.01 0.01 0.01 0.01 0.01 0.01 0.01 0.01 0.00 0.00 0.00 0.01
0.00 0.00 0.00 0.00 0.00 0.00 0.00 0.00 0.00 0.00 0.00 0.00 0.01 0.01 0.01 0.01 0.01 0.01 0.01 0.01 0.00 0.00 0.00 0.00 0.00 0.00 0.00 0.01 0.01 0.01 0.01 0.00 0.00 0.00 0.00 0.00 0.01 0.01 0.01 0.01 0.01 0.01 0.01
0.00 0.00 0.00 0.00 0.00 0.00 0.00 0.00 0.00 0.00 0.00 0.00 0.01 0.00 0.00 0.00 0.01 0.01 0.01 0.00 0.00 0.00 0.00 0.00 0.00 0.00 0.00 0.00 0.01 0.01 0.00 0.00 0.00 0.00 0.00 0.00 0.00 0.01 0.01 0.01 0.01 0.01 0.01
0.00 0.00 0.00 0.00 0.00 0.00 0.00 0.00 0.00 0.00 0.00 0.01 0.01 0.00 0.00 0.00 0.00 0.00 0.00 0.00 0.00 0.00 0.00 0.00 0.00 0.00 0.00 0.00 0.00 0.00 0.00 0.00 0.00 0.00 0.00 0.00 0.00 0.01 0.01 0.01 0.01 0.01 0.00
0.00 0.00 0.00 0.00 0.00 0.00 0.00 0.00 0.00 0.00 0.01 0.01 0.01 0.00 0.01 0.01 0.00 0.00 0.00 0.00 0.00 0.00 0.00 0.00 0.00 0.00 0.00 0.00 0.00 0.00 0.00 0.00 0.00 0.00 0.00 0.00 0.00 0.00 0.00 0.00 0.00 0.00 0.00
0.00 0.00 0.00 0.00 0.00 0.00 0.00 0.00 0.00 0.00 0.01 0.01 0.01 0.00 0.01 0.00 0.00 0.00 0.00 0.00 0.00 0.00 0.00 0.00 0.00 0.00 0.00 0.00 0.00 0.00 0.00 0.00 0.00 0.00 0.00 0.00 0.00 0.00 0.00 0.00 0.00 0.00 0.00
0.00 0.00 0.00 0.00 0.00 0.00 0.00 0.00 0.00 0.01 0.01 0.01 0.01 0.00 0.01 0.00 0.00 0.00 0.00 0.00 0.00 0.00 0.00 0.00 0.00 0.00 0.00 0.00 0.00 0.00 0.00 0.00 0.00 0.00 0.00 0.00 0.00 0.00 0.00 0.00 0.00 0.00 0.00
0.00 0.00 0.00 0.00 0.00 0.00 0.01 0.01 0.01 0.01 0.01 0.01 0.01 0.01 0.01 0.01 0.00 0.00 0.00 0.00 0.00 0.00 0.00 0.00 0.00 0.00 0.00 0.00 0.00 0.00 0.00 0.00 0.00 0.00 0.00 0.00 0.00 0.00 0.00 0.00 0.00 0.00 0.00
0.00 0.00 0.00 0.00 0.00 0.01 0.01 0.01 0.01 0.01 0.01 0.01 0.01 0.01 0.01 0.01 0.01 0.00 0.00 0.00 0.00 0.00 0.00 0.00 0.00 0.00 0.00 0.00 0.00 0.00 0.00 0.00 0.00 0.00 0.00 0.00 0.00 0.00 0.00 0.00 0.00 0.00 0.00
0.00 0.00 0.00 0.00 0.00 0.00 0.01 0.01 0.01 0.01 0.01 0.01 0.01 0.01 0.00 0.01 0.01 0.01 0.00 0.00 0.00 0.00 0.00 0.00 0.00 0.00 0.00 0.00 0.00 0.00 0.00 0.00 0.00 0.00 0.00 0.00 0.00 0.00 0.00 0.00 0.00 0.00 0.00
0.00 0.00 0.00 0.00 0.00 0.00 0.00 0.01 0.01 0.01 0.01 0.01 0.01 0.01 0.00 0.00 0.00 0.00 0.00 0.00 0.00 0.00 0.00 0.00 0.00 0.00 0.00 0.00 0.00 0.00 0.00 0.00 0.00 0.00 0.00 0.00 0.00 0.00 0.00 0.00 0.00 0.00 0.00
0.00 0.00 0.00 0.00 0.00 0.00 0.00 0.01 0.01 0.01 0.01 0.01 0.00 0.00 0.00 0.00 0.00 0.00 0.00 0.00 0.00 0.00 0.00 0.00 0.00 0.00 0.00 0.00 0.00 0.00 0.00 0.00 0.00 0.00 0.00 0.00 0.00 0.00 0.00 0.00 0.00 0.00 0.00
0.00 0.00 0.00 0.00 0.00 0.00 0.00 0.00 0.01 0.01 0.01 0.00 0.00 0.00 0.00 0.00 0.00 0.00 0.00 0.00 0.00 0.00 0.00 0.00 0.00 0.00 0.00 0.00 0.00 0.00 0.00 0.00 0.00 0.00 0.00 0.00 0.00 0.00 0.00 0.00 0.00 0.00 0.00
0.00 0.00 0.00 0.00 0.00 0.00 0.00 0.00 0.01 0.01 0.01 0.00 0.00 0.00 0.00 0.00 0.00 0.00 0.00 0.00 0.00 0.00 0.00 0.00 0.00 0.00 0.00 0.00 0.00 0.00 0.00 0.00 0.00 0.00 0.00 0.00 0.00 0.00 0.00 0.00 0.00 0.00 0.00
0.00 0.00 0.00 0.00 0.00 0.00 0.00 0.00 0.00 0.00 0.00 0.00 0.00 0.00 0.00 0.00 0.00 0.00 0.00 0.00 0.00 0.00 0.00 0.00 0.00 0.00 0.00 0.00 0.00 0.00 0.00 0.00 0.00 0.00 0.00 0.00 0.00 0.00 0.00 0.00 0.00 0.00 0.00
0.00 0.00 0.00 0.00 0.00 0.00 0.00 0.00 0.00 0.00 0.00 0.00 0.00 0.00 0.00 0.00 0.00 0.00 0.00 0.00 0.00 0.00 0.00 0.00 0.00 0.00 0.00 0.00 0.00 0.00 0.00 0.00 0.00 0.00 0.00 0.00 0.00 0.00 0.00 0.00 0.00 0.00 0.00
0.00 0.00 0.00 0.00 0.00 0.00 0.00 0.00 0.00 0.00 0.00 0.00 0.00 0.00 0.00 0.00 0.00 0.00 0.00 0.00 0.00 0.00 0.00 0.00 0.00 0.00 0.00 0.00 0.00 0.00 0.00 0.00 0.00 0.00 0.00 0.00 0.00 0.00 0.00 0.00 0.00 0.00 0.00
0.00 0.00 0.00 0.00 0.00 0.00 0.00 0.00 0.00 0.00 0.00 0.00 0.00 0.00 0.00 0.00 0.00 0.00 0.00 0.00 0.00 0.00 0.00 0.00 0.00 0.00 0.00 0.00 0.00 0.00 0.00 0.00 0.00 0.00 0.00 0.00 0.00 0.00 0.00 0.00 0.00 0.00 0.00
0.00 0.00 0.00 0.00 0.00 0.00 0.00 0.00 0.00 0.00 0.00 0.00 0.00 0.00 0.00 0.00 0.00 0.00 0.00 0.00 0.00 0.00 0.00 0.00 0.00 0.00 0.00 0.00 0.00 0.00 0.00 0.00 0.00 0.00 0.00 0.00 0.00 0.00 0.00 0.00 0.00 0.00 0.00
0.00 0.00 0.00 0.00 0.00 0.00 0.00 0.00 0.00 0.00 0.00 0.00 0.00 0.00 0.00 0.00 0.00 0.00 0.00 0.00 0.00 0.00 0.00 0.00 0.00 0.00 0.00 0.00 0.00 0.00 0.00 0.00 0.00 0.00 0.00 0.00 0.00 0.00 0.00 0.00 0.00 0.00 0.00
0.00 0.00 0.00 0.00 0.00 0.00 0.00 0.00 0.00 0.00 0.00 0.00 0.00 0.00 0.00 0.00 0.00 0.00 0.00 0.00 0.00 0.00 0.00 0.00 0.00 0.00 0.00 0.00 0.00 0.00 0.00 0.00 0.00 0.00 0.00 0.00 0.00 0.00 0.00 0.00 0.00 0.00 0.00
0.00 0.00 0.00 0.00 0.00 0.00 0.00 0.00 0.00 0.00 0.00 0.00 0.00 0.00 0.00 0.00 0.00 0.00 0.00 0.00 0.00 0.00 0.00 0.00 0.00 0.00 0.00 0.00 0.00 0.00 0.00 0.00 0.00 0.00 0.00 0.00 0.00 0.00 0.00 0.00 0.00 0.00 0.00
0.00 0.00 0.00 0.00 0.00 0.00 0.00 0.00 0.00 0.00 0.00 0.00 0.00 0.00 0.00 0.00 0.00 0.00 0.00 0.00 0.00 0.00 0.00 0.00 0.00 0.00 0.00 0.00 0.00 0.00 0.00 0.00 0.00 0.00 0.00 0.00 0.00 0.00 0.00 0.00 0.00 0.00 0.00
0.00 0.00 0.00 0.00 0.00 0.00 0.00 0.00 0.00 0.00 0.00 0.00 0.00 0.00 0.00 0.00 0.00 0.00 0.00 0.00 0.00 0.00 0.00 0.00 0.00 0.00 0.00 0.00 0.00 0.00 0.00 0.00 0.00 0.00 0.00 0.00 0.00 0.00 0.00 0.00 0.00 0.00 0.00
0.00 0.00 0.00 0.00 0.00 0.00 0.00 0.00 0.00 0.00 0.00 0.00 0.00 0.00 0.00 0.00 0.00 0.00 0.00 0.00 0.00 0.00 0.00 0.00 0.00 0.00 0.00 0.00 0.00 0.00 0.00 0.00 0.00 0.00 0.00 0.00 0.00 0.00 0.00 0.00 0.00 0.00 0.00
0.00 0.00 0.00 0.00 0.00 0.00 0.00 0.00 0.00 0.00 0.00 0.00 0.00 0.00 0.00 0.00 0.00 0.00 0.00 0.00 0.00 0.00 0.00 0.00 0.00 0.00 0.00 0.00 0.00 0.00 0.00 0.00 0.00 0.00 0.00 0.00 0.00 0.00 0.00 0.00 0.00 0.00 0.00
MSLP
1016.62 1016.72 1016.92 1017.22 1017.62 1018.06 1018.50 1018.90 1019.21 1019.43 1019.59 1019.71 1019.84 1020.01 1020.23 1020.50 1020.78 1021.04 1021.24 1021.36 1021.40 1021.38 1021.32 1021.27 1021.24 1021.25 1021.30 1021.36 1021.42 1021.45 1021.45 1021.41 1021.36 1021.29 1021.24 1021.20 1021.17 1021.15 1021.12 1021.07 1021.00 1020.91 1020.80
1016.15 1016.33 1016.61 1017.02 1017.52 1018.06 1018.57 1019.01 1019.35 1019.59 1019.76 1019.90 1020.05 1020.25 1020.51 1020.81 1021.13 1021.42 1021.65 1021.80 1021.87 1021.88 1021.86 1021.84 1021.84 1021.87 1021.92 1021.97 1022.00 1021.99 1021.95 1021.88 1021.80 1021.73 1021.69 1021.66 1021.66 1021.66 1021.65 1021.60 1021.53 1021.43 1021.32
1015.66 1015.92 1016.31 1016.83 1017.43 1018.06 1018.64 1019.13 1019.51 1019.77 1019.96 1020.13 1020.30 1020.53 1020.82 1021.14 1021.47 1021.77 1022.01 1022.17 1022.25 1022.28 1022.30 1022.31 1022.34 1022.39 1022.45 1022.48 1022.49 1022.45 1022.38 1022.28 1022.19 1022.12 1022.09 1022.09 1022.10 1022.13 1022.13 1022.10 1022.02 1021.92 1021.81
1015.21 1015.56 1016.06 1016.69 1017.38 1018.08 1018.73 1019.26 1019.67 1019.96 1020.17 1020.36 1020.56 1020.81 1021.11 1021.44 1021.77 1022.06 1022.28 1022.43 1022.52 1022.57 1022.61 1022.66 1022.72 1022.80 1022.87 1022.90 1022.89 1022.84 1022.74 1022.63 1022.53 1022.46 1022.44 1022.46 1022.50 1022.54 1022.55 1022.53 1022.46 1022.36 1022.25
1014.86 1015.30 1015.89 1016.60 1017.38 1018.13 1018.81 1019.37 1019.79 1020.10 1020.34 1020.54 1020.77 1021.03 1021.34 1021.67 1021.98 1022.25 1022.45 1022.59 1022.68 1022.75 1022.82 1022.90 1023.00 1023.11 1023.20 1023.24 1023.23 1023.17 1023.06 1022.94 1022.84 1022.78 1022.76 1022.79 1022.85 1022.89 1022.91 1022.90 1022.83 1022.75 1022.65
1014.64 1015.15 1015.81 1016.59 1017.40 1018.18 1018.87 1019.43 1019.86 1020.17 1020.42 1020.64 1020.88 1021.17 1021.48 1021.80 1022.10 1022.35 1022.54 1022.67 1022.76 1022.84 1022.94 1023.06 1023.21 1023.35 1023.47 1023.53 1023.53 1023.47 1023.36 1023.24 1023.14 1023.08 1023.07 1023.10 1023.16 1023.20 1023.22 1023.20 1023.14 1023.06 1022.98
1014.55 1015.11 1015.82 1016.61 1017.43 1018.21 1018.88 1019.42 1019.83 1020.14 1020.38 1020.63 1020.89 1021.20 1021.52 1021.85 1022.14 1022.38 1022.56 1022.69 1022.80 1022.90 1023.03 1023.19 1023.37 1023.55 1023.70 1023.78 1023.80 1023.74 1023.65 1023.53 1023.44 1023.38 1023.37 1023.40 1023.44 1023.47 1023.47 1023.45 1023.39 1023.32 1023.26
1014.57 1015.14 1015.85 1016.65 1017.45 1018.19 1018.82 1019.32 1019.70 1020.00 1020.26 1020.52 1020.82 1021.14 1021.50 1021.84 1022.14 1022.39 1022.57 1022.70 1022.82 1022.95 1023.10 1023.29 1023.50 1023.71 1023.89 1023.99 1024.02 1023.99 1023.90 1023.80 1023.71 1023.66 1023.65 1023.67 1023.69 1023.70 1023.68 1023.63 1023.57 1023.50 1023.46
1014.62 1015.19 1015.89 1016.65 1017.41 1018.10 1018.69 1019.15 1019.51 1019.81 1020.07 1020.36 1020.69 1021.05 1021.43 1021.80 1022.13 1022.38 1022.58 1022.72 1022.85 1022.99 1023.17 1023.37 1023.60 1023.83 1024.02 1024.14 1024.18 1024.16 1024.10 1024.01 1023.94 1023.90 1023.89 1023.89 1023.90 1023.88 1023.84 1023.76 1023.67 1023.60 1023.55
1014.66 1015.20 1015.87 1016.60 1017.32 1017.96 1018.51 1018.94 1019.29 1019.59 1019.88 1020.19 1020.56 1020.96 1021.38 1021.77 1022.12 1022.39 1022.59 1022.75 1022.88 1023.03 1023.20 1023.41 1023.64 1023.87 1024.06 1024.18 1024.24 1024.24 1024.19 1024.13 1024.08 1024.05 1024.04 1024.04 1024.03 1023.99 1023.92 1023.81 1023.70 1023.60 1023.54
1014.63 1015.15 1015.79 1016.48 1017.17 1017.78 1018.30 1018.73 1019.07 1019.39 1019.70 1020.06 1020.46 1020.90 1021.34 1021.75 1022.11 1022.39 1022.60 1022.75 1022.89 1023.02 1023.19 1023.38 1023.60 1023.81 1023.99 1024.11 1024.18 1024.18 1024.16 1024.12 1024.08 1024.07 1024.07 1024.07 1024.05 1024.00 1023.90 1023.77 1023.63 1023.51 1023.42
1014.52 1015.02 1015.64 1016.31 1016.97 1017.57 1018.09 1018.52 1018.89 1019.23 1019.58 1019.97 1020.40 1020.86 1021.31 1021.74 1022.09 1022.37 1022.57 1022.72 1022.83 1022.95 1023.10 1023.27 1023.46 1023.64 1023.80 1023.91 1023.98 1023.99 1023.98 1023.95 1023.94 1023.94 1023.95 1023.95 1023.93 1023.87 1023.77 1023.62 1023.46 1023.31 1023.20
1014.36 1014.85 1015.45 1016.11 1016.76 1017.36 1017.88 1018.34 1018.74 1019.12 1019.50 1019.92 1020.36 1020.82 1021.28 1021.69 1022.03 1022.29 1022.48 1022.61 1022.70 1022.80 1022.92 1023.06 1023.22 1023.37 1023.51 1023.60 1023.66 1023.67 1023.66 1023.65 1023.64 1023.65 1023.66 1023.67 1023.66 1023.60 1023.50 1023.35 1023.18 1023.02 1022.88
1014.20 1014.68 1015.26 1015.90 1016.55 1017.15 1017.70 1018.19 1018.62 1019.04 1019.45 1019.88 1020.32 1020.77 1021.20 1021.58 1021.90 1022.14 1022.30 1022.41 1022.50 1022.58 1022.67 1022.78 1022.91 1023.03 1023.14 1023.22 1023.26 1023.26 1023.24 1023.22 1023.21 1023.21 1023.22 1023.23 1023.22 1023.18 1023.09 1022.96 1022.80 1022.64 1022.49
1014.11 1014.56 1015.11 1015.73 1016.36 1016.98 1017.54 1018.06 1018.53 1018.97 1019.39 1019.82 1020.24 1020.66 1021.05 1021.40 1021.68 1021.90 1022.05 1022.15 1022.22 1022.29 1022.37 1022.46 1022.57 1022.67 1022.75 1022.80 1022.82 1022.80 1022.76 1022.72 1022.68 1022.66 1022.65 1022.65 1022.65 1022.62 1022.55 1022.46 1022.33 1022.18 1022.05
1014.13 1014.54 1015.04 1015.62 1016.23 1016.84 1017.41 1017.95 1018.44 1018.90 1019.32 1019.73 1020.12 1020.49 1020.84 1021.14 1021.39 1021.58 1021.73 1021.83 1021.91 1021.98 1022.06 1022.15 1022.23 1022.31 1022.37 1022.39 1022.38 1022.33 1022.26 1022.18 1022.10 1022.04 1021.99 1021.97 1021.95 1021.94 1021.90 1021.84 1021.76 1021.66 1021.55
1014.31 1014.65 1015.08 1015.60 1016.17 1016.76 1017.33 1017.87 1018.38 1018.83 1019.24 1019.62 1019.96 1020.28 1020.58 1020.83 1021.06 1021.24 1021.38 1021.50 1021.59 1021.68 1021.77 1021.85 1021.93 1021.99 1022.02 1022.02 1021.98 1021.89 1021.78 1021.64 1021.51 1021.39 1021.30 1021.23 1021.20 1021.18 1021.17 1021.15 1021.12 1021.07 1021.00
1014.63 1014.88 1015.24 1015.68 1016.19 1016.75 1017.31 1017.85 1018.35 1018.79 1019.18 1019.51 1019.80 1020.06 1020.30 1020.52 1020.71 1020.89 1021.04 1021.18 1021.30 1021.40 1021.50 1021.58 1021.65 1021.70 1021.71 1021.68 1021.61 1021.49 1021.33 1021.15 1020.95 1020.77 1020.61 1020.49 1020.42 1020.39 1020.38 1020.40 1020.42 1020.42 1020.39
1015.07 1015.23 1015.49 1015.86 1016.31 1016.83 1017.37 1017.90 1018.38 1018.80 1019.15 1019.44 1019.67 1019.87 1020.05 1020.23 1020.40 1020.57 1020.74 1020.89 1021.02 1021.15 1021.25 1021.33 1021.39 1021.42 1021.42 1021.38 1021.28 1021.13 1020.94 1020.70 1020.45 1020.20 1019.98 1019.80 1019.67 1019.61 1019.59 1019.62 1019.67 1019.70 1019.72
1015.58 1015.66 1015.83 1016.12 1016.53 1017.01 1017.52 1018.03 1018.50 1018.89 1019.19 1019.42 1019.59 1019.72 1019.85 1019.98 1020.13 1020.29 1020.46 1020.62 1020.77 1020.90 1021.00 1021.08 1021.13 1021.14 1021.13 1021.07 1020.96 1020.80 1020.58 1020.32 1020.02 1019.72 1019.43 1019.18 1018.99 1018.88 1018.83 1018.85 1018.90 1018.95 1018.99
1016.10 1016.10 1016.21 1016.45 1016.81 1017.26 1017.76 1018.25 1018.68 1019.03 1019.29 1019.46 1019.56 1019.63 1019.69 1019.78 1019.90 1020.04 1020.20 1020.37 1020.52 1020.64 1020.73 1020.79 1020.83 1020.83 1020.81 1020.75 1020.65 1020.49 1020.27 1020.00 1019.67 1019.33 1018.98 1018.66 1018.41 1018.23 1018.14 1018.11 1018.13 1018.18 1018.21
1016.56 1016.53 1016.60 1016.81 1017.14 1017.57 1018.04 1018.51 1018.91 1019.22 1019.42 1019.52 1019.56 1019.56 1019.57 1019.61 1019.69 1019.81 1019.96 1020.11 1020.24 1020.35 1020.42 1020.46 1020.48 1020.47 1020.45 1020.40 1020.32 1020.18 1019.98 1019.72 1019.39 1019.02 1018.63 1018.26 1017.93 1017.68 1017.51 1017.42 1017.40 1017.40 1017.41
1016.94 1016.91 1016.96 1017.15 1017.47 1017.88 1018.33 1018.77 1019.13 1019.39 1019.54 1019.57 1019.54 1019.49 1019.44 1019.43 1019.48 1019.57 1019.69 1019.82 1019.93 1020.01 1020.06 1020.08 1020.08 1020.07 1020.05 1020.02 1019.97 1019.87 1019.71 1019.47 1019.15 1018.77 1018.36 1017.94 1017.55 1017.22 1016.97 1016.81 1016.71 1016.65 1016.61
1017.21 1017.20 1017.26 1017.45 1017.76 1018.14 1018.57 1018.97 1019.29 1019.50 1019.59 1019.57 1019.48 1019.38 1019.29 1019.24 1019.26 1019.32 1019.41 1019.51 1019.59 1019.64 1019.66 1019.65 1019.64 1019.62 1019.61 1019.61 1019.59 1019.53 1019.41 1019.21 1018.92 1018.54 1018.11 1017.65 1017.21 1016.81 1016.49 1016.24 1016.06 1015.94 1015.84
1017.38 1017.40 1017.49 1017.68 1017.97 1018.33 1018.72 1019.08 1019.35 1019.51 1019.55 1019.48 1019.36 1019.22 1019.10 1019.03 1019.02 1019.06 1019.13 1019.20 1019.24 1019.26 1019.24 1019.21 1019.17 1019.15 1019.14 1019.16 1019.17 1019.15 1019.07 1018.90 1018.64 1018.27 1017.83 1017.35 1016.87 1016.41 1016.02 1015.70 1015.45 1015.26 1015.10
1017.46 1017.52 1017.62 1017.82 1018.09 1018.42 1018.77 1019.07 1019.30 1019.41 1019.42 1019.33 1019.18 1019.03 1018.90 1018.82 1018.80 1018.82 1018.86 1018.90 1018.91 1018.88 1018.83 1018.76 1018.69 1018.65 1018.65 1018.67 1018.70 1018.70 1018.64 1018.50 1018.26 1017.91 1017.47 1016.98 1016.46 1015.97 1015.52 1015.14 1014.83 1014.58 1014.38
Thickness
5731 5728 5724 5721 5717 5715 5712 5710 5708 5706 5704 5703 5701 5700 5698 5697 5696 5695 5695 5694 5694 5694 5695 5695 5695 5695 5695 5695 5695 5695 5695 5696 5697 5698 5699 5700 5700 5701 5701 5702 5703 5704 5705
5735 5728 5723 5719 5715 5712 5710 5707 5705 5703 5700 5699 5697 5695 5694 5692 5691 5691 5690 5689 5689 5689 5689 5689 5689 5689 5689 5689 5689 5689 5689 5690 5691 5692 5692 5693 5694 5695 5695 5696 5697 5698 5699
5735 5727 5721 5717 5714 5710 5707 5704 5702 5699 5697 5695 5693 5691 5689 5688 5687 5686 5685 5684 5683 5683 5683 5683 5682 5682 5682 5682 5682 5682 5682 5683 5685 5686 5686 5686 5687 5688 5689 5689 5690 5691 5692
5734 5727 5721 5716 5712 5708 5705 5702 5699 5696 5693 5691 5689 5687 5685 5684 5682 5681 5679 5678 5677 5677 5677 5676 5676 5676 5676 5676 5676 5676 5676 5677 5679 5680 5679 5680 5681 5682 5682 5683 5683 5684 5685
5733 5726 5720 5715 5711 5707 5703 5699 5696 5693 5690 5688 5685 5683 5681 5679 5678 5676 5674 5673 5672 5671 5671 5671 5670 5670 5670 5670 5670 5670 5670 5671 5672 5673 5673 5673 5674 5675 5676 5676 5677 5677 5678
5732 5725 5719 5713 5709 5705 5701 5697 5693 5690 5687 5684 5682 5680 5678 5676 5674 5671 5670 5668 5667 5666 5666 5665 5665 5665 5664 5664 5664 5664 5665 5666 5667 5667 5667 5667 5668 5669 5669 5670 5670 5671 5671
5731 5725 5717 5712 5707 5702 5698 5694 5690 5687 5684 5681 5679 5676 5674 5672 5670 5667 5665 5664 5662 5662 5661 5660 5660 5660 5660 5659 5659 5659 5659 5660 5662 5662 5662 5662 5662 5663 5663 5664 5664 5665 5665
5730 5724 5716 5710 5705 5700 5696 5692 5688 5684 5681 5678 5675 5673 5671 5668 5666 5664 5661 5660 5658 5657 5656 5656 5655 5655 5655 5655 5654 5654 5655 5656 5657 5658 5657 5656 5657 5657 5658 5658 5658 5659 5659
5729 5723 5714 5707 5702 5697 5693 5689 5685 5681 5678 5675 5672 5670 5667 5665 5662 5660 5658 5656 5655 5653 5652 5651 5651 5651 5650 5650 5650 5650 5650 5651 5652 5653 5653 5652 5652 5652 5653 5653 5653 5653 5653
5726 5720 5712 5705 5700 5695 5690 5686 5682 5678 5675 5672 5669 5666 5663 5661 5659 5657 5654 5652 5651 5650 5649 5648 5647 5646 5646 5646 5646 5646 5646 5647 5648 5648 5648 5648 5647 5648 5648 5648 5648 5648 5648
5721 5717 5712 5705 5699 5693 5688 5684 5679 5676 5672 5669 5665 5662 5660 5657 5655 5653 5651 5649 5647 5646 5645 5644 5644 5643 5643 5642 5642 5642 5642 5643 5644 5644 5644 5644 5643 5643 5644 5644 5644 5644 5644
5714 5713 5711 5705 5698 5692 5687 5682 5677 5673 5669 5665 5662 5659 5656 5654 5652 5650 5648 5646 5644 5642 5641 5640 5640 5639 5639 5639 5639 5639 5639 5639 5640 5640 5641 5640 5640 5639 5640 5640 5640 5640 5640
5714 5710 5709 5704 5697 5691 5685 5680 5675 5670 5666 5663 5660 5656 5653 5651 5648 5646 5643 5641 5639 5638 5637 5636 5636 5635 5636 5636 5636 5635 5635 5635 5636 5636 5636 5636 5635 5635 5636 5636 5636 5636 5636
5714 5708 5706 5702 5696 5689 5683 5678 5673 5668 5663 5660 5656 5653 5650 5647 5645 5642 5639 5637 5635 5634 5633 5632 5632 5632 5632 5632 5632 5631 5631 5631 5631 5631 5631 5631 5631 5630 5631 5631 5631 5631 5632
5712 5707 5702 5698 5693 5686 5680 5674 5669 5665 5660 5656 5653 5649 5646 5643 5640 5638 5635 5633 5632 5630 5629 5628 5627 5627 5627 5627 5627 5626 5626 5626 5626 5627 5627 5626 5626 5625 5625 5626 5626 5626 5626
5710 5704 5699 5694 5689 5683 5677 5671 5666 5661 5657 5653 5649 5645 5642 5639 5636 5633 5631 5629 5627 5626 5624 5623 5622 5621 5621 5621 5621 5621 5621 5621 5621 5622 5622 5622 5621 5620 5620 5620 5620 5621 5621
5706 5702 5696 5690 5685 5679 5673 5668 5663 5658 5654 5649 5645 5641 5638 5635 5632 5629 5627 5625 5623 5621 5620 5618 5617 5616 5615 5615 5615 5615 5615 5616 5616 5617 5617 5617 5617 5616 5615 5614 5614 5615 5615
5701 5696 5690 5686 5680 5675 5669 5664 5659 5654 5649 5645 5641 5637 5634 5631 5628 5625 5622 5620 5618 5616 5615 5613 5611 5609 5608 5608 5608 5609 5610 5611 5611 5612 5612 5612 5612 5612 5611 5610 5609 5609 5609
5694 5689 5683 5679 5674 5669 5664 5659 5654 5649 5645 5641 5637 5633 5629 5626 5624 5621 5618 5615 5613 5611 5609 5607 5606 5603 5602 5601 5602 5603 5604 5605 5606 5606 5607 5607 5607 5607 5607 5605 5603 5602 5601
5687 5682 5677 5672 5668 5663 5658 5653 5647 5643 5639 5635 5631 5628 5624 5621 5618 5616 5613 5610 5607 5605 5603 5601 5599 5597 5596 5595 5595 5597 5598 5599 5600 5600 5602 5603 5603 5602 5600 5599 5597 5595 5593
5677 5673 5669 5664 5660 5656 5650 5645 5639 5635 5631 5628 5624 5621 5619 5616 5613 5610 5608 5605 5602 5599 5597 5595 5593 5591 5589 5587 5585 5587 5591 5594 5595 5597 5598 5598 5597 5596 5594 5592 5590 5588 5586
5668 5665 5661 5657 5653 5649 5643 5638 5634 5629 5625 5622 5618 5616 5613 5610 5608 5605 5602 5599 5596 5593 5591 5588 5586 5583 5581 5578 5574 5572 5575 5583 5590 5594 5594 5593 5592 5590 5587 5584 5582 5580 5578
5658 5656 5653 5649 5645 5641 5636 5631 5626 5622 5618 5615 5612 5609 5607 5605 5602 5599 5596 5593 5590 5587 5584 5581 5579 5575 5572 5570 5566 5560 5558 5563 5572 5581 5582 5582 5581 5579 5578 5576 5573 5570 5568
5649 5647 5644 5641 5637 5633 5628 5623 5619 5614 5610 5608 5606 5604 5602 5599 5596 5593 5590 5587 5583 5580 5577 5575 5572 5568 5564 5561 5558 5555 5553 5550 5548 5557 5566 5567 5566 5564 5562 5562 5561 5559 5557
5641 5639 5635 5632 5628 5625 5621 5617 5613 5608 5605 5602 5600 5597 5594 5592 5590 5586 5583 5579 5576 5573 5570 5567 5564 5561 5557 5553 5549 5546 5543 5541 5538 5536 5544 5548 5549 5549 5548 5546 5545 5544 5543
5634 5631 5628 5624 5620 5617 5613 5609 5605 5601 5597 5594 5591 5588 5585 5583 5581 5578 5575 5571 5568 5564 5561 5558 5555 5552 5548 5544 5541 5536 5532 5527 5525 5522 5526 5529 5531 5534 5532 5531 5528 5526 5524